Location: Unspecified
(50.7693°N, 0.0000°E)
Time: 07:36:56
(UTC+00:00)

Transit 2A - Pass Details

Date: 20 August 2020
Orbit: 591 x 967 km, 66.7° (Epoch: 20 September)

Event Time Altitude Azimuth Distance (km) Brightness Sun altitude
Rises 02:02:54 0° 322° (NW) 3,667 9.8 -21.7°
Reaches altitude 10° 02:05:30 10° 322° (NW) 2,710 9.1 -21.5°
Maximum altitude 02:11:55 89° 236° (SW) 943 6.3 -21.0°
Drops below altitude 10° 02:17:56 10° 145° (SE) 2,547 8.5 -20.4°
Sets 02:20:19 0° 146° (SE) 3,433 9.2 -20.2°
